Вернуться в каталог

COSMOS 839 DEB

АктивенUNKNOWN
NORAD 36300·DEBRIS·🇷🇺 Russia

Запущен Jul 8, 1976 с Plesetsk Cosmodrome

Loading…

Ближайшие Пролёты (ближайшие 24 часа)

TLE

СвежийSource: Space-Track

Эпоха: Sep 14, 2026, 02:31 UTC

1 36300U 76067BZ  26257.10550708  .00000080  00000-0  48567-3 0  9997
2 36300  65.6814 144.5176 0679970   4.2855 141.9761 12.36225714771955

Отслеживайте COSMOS 839 DEB в реальном времени с AllMySat

Download on the App Store